Tracking 20626 objects as of 8-Apr-2020
HD Live streaming from Space Station
objects crossing your sky now

SL-8 DEB

Track SL-8 DEB now!
10-day predictions


NORAD ID: 1591
Int'l Code: 1965-073H
Perigee: 1,378.7 km
Apogee: 1,629.9 km
Inclination: 56.1 °
Period: 115.9 minutes
Semi major axis: 7875 km
RCS: 0.0613 m2 (small)
Launch date: September 18, 1965
Source: Commonwealth of Independent States (former USSR) (CIS)
Launch site: TYURATAM MISSILE AND SPACE COMPLEX (TTMTR)

Note: This is SATELLITE DEBRIS
aabbcc
Your satellite tracking list
Your tracking list is empty




NASA's NSSDC Master Catalog

Two Line Element Set (TLE):
1  1591U 65073H   20098.90135872 +.00000167 +00000-0 +18067-2 0  9999
2  1591 056.0592 049.2477 0159469 200.9258 196.1781 12.42235602467667
Source of the keplerian elements: AFSPC